{"data":{"norad_id":49093,"epoch":"2026-09-20T00:08:26.607264Z","epoch_age_seconds":64584,"freshness":"FRESH","line1":"1 49093U 21075U   26263.00586351  .00000097  00000+0  21759-3 0  9999","line2":"2 49093  87.9205 347.0331 0001953 112.6672 247.4666 13.17650733246094","mean_motion":13.17650733,"eccentricity":0.0001953,"inclination_deg":87.9205,"raan_deg":347.0331,"arg_perigee_deg":112.6672,"mean_anomaly_deg":247.4666,"bstar":0.00021759,"rev_number":24609,"period_min":109.28540955018,"perigee_km":1192.2278397061,"apogee_km":1195.1854018244,"semimajor_km":7571.8436207653,"source":"CELESTRAK","updated_at":"2026-09-20T09:00:44.656295Z"}}